N6GIW Weather Reports


Display with metric or nautical units.
time (UTC)temp
F
wind
direction
speed
MPH
gust
MPH
rain 1hr
in
rain 24hr
in
rain mn
in
humidity
%
barometer
mb
20260508035504 78 282 0.0 0.0 0.00 0.00 0.00 21 1021.9
20260508035004 78 284 0.0 0.0 0.00 0.00 0.00 21 1021.9
20260508034504 79 281 0.0 0.0 0.00 0.00 0.00 22 1021.9
20260508034004 79 288 0.0 0.0 0.00 0.00 0.00 22 1021.9
20260508033504 79 288 0.0 0.0 0.00 0.00 0.00 22 1021.9
20260508033005 78 287 0.0 0.0 0.00 0.00 0.00 23 1021.9
20260508032504 77 262 0.0 0.0 0.00 0.00 0.00 22 1021.6
20260508032004 77 244 0.0 0.0 0.00 0.00 0.00 22 1021.6
20260508031003 77 247 0.0 0.0 0.00 0.00 0.00 21 1021.4
20260508030504 77 247 0.0 0.0 0.00 0.00 0.00 21 1021.3
20260508030004 78 218 0.0 0.0 0.00 0.00 0.00 21 1021.2
20260508025504 78 242 0.0 0.0 0.00 0.00 0.00 21 1021.3
20260508025004 79 240 0.0 0.0 0.00 0.00 0.00 20 1021.2
20260508024505 80 239 0.0 0.0 0.00 0.00 0.00 20 1021.2
20260508024004 80 206 0.0 0.0 0.00 0.00 0.00 19 1021.2
20260508023504 82 255 0.0 0.0 0.00 0.00 0.00 18 1021.0
20260508023004 83 201 0.0 0.0 0.00 0.00 0.00 17 1021.0
20260508022004 85 295 0.0 9.0 0.00 0.00 0.00 13 1021.0
20260508021504 85 315 0.0 3.0 0.00 0.00 0.00 13 1020.9
20260508021004 85 320 0.0 3.0 0.00 0.00 0.00 13 1020.9
20260508020504 85 327 3.0 8.0 0.00 0.00 0.00 12 1020.8
20260508020004 86 338 6.0 10.0 0.00 0.00 0.00 12 1020.8
20260508015504 86 353 5.0 10.0 0.00 0.00 0.00 12 1020.8
20260508015004 86 334 5.0 9.0 0.00 0.00 0.00 12 1020.8
20260508014505 86 322 5.0 10.0 0.00 0.00 0.00 12 1020.8
20260508014004 87 331 6.0 9.0 0.00 0.00 0.00 12 1020.8
20260508013504 87 329 6.0 10.0 0.00 0.00 0.00 12 1020.7
20260508013004 87 316 6.0 12.0 0.00 0.00 0.00 12 1020.8
20260508012504 87 319 6.0 9.0 0.00 0.00 0.00 12 1020.8
20260508012004 87 307 5.0 8.0 0.00 0.00 0.00 13 1020.8
20260508011504 87 318 4.0 9.0 0.00 0.00 0.00 13 1020.9
20260508010005 88 345 10.0 14.0 0.00 0.00 0.00 13 1020.8
20260508005504 88 318 7.0 12.0 0.00 0.00 0.00 13 1020.9
20260508005004 88 3 6.0 12.0 0.00 0.00 0.00 13 1021.0
20260508004504 88 7 3.0 9.0 0.00 0.00 0.00 13 1021.0
20260508004003 88 13 6.0 13.0 0.00 0.00 0.00 13 1021.0
20260508003503 89 7 6.0 12.0 0.00 0.00 0.00 13 1021.0
20260508003005 89 351 7.0 13.0 0.00 0.00 0.00 13 1021.1
20260508002004 89 336 4.0 8.0 0.00 0.00 0.00 13 1020.9
20260508001505 89 349 7.0 12.0 0.00 0.00 0.00 13 1021.0
20260508000505 88 0 7.0 13.0 0.00 0.00 0.00 14 1021.0
20260508000004 89 35 5.0 10.0 0.00 0.00 0.00 14 1021.0
20260507235504 89 56 6.0 12.0 0.00 0.00 0.00 14 1021.0
20260507235004 89 29 6.0 12.0 0.00 0.00 0.00 14 1021.1
20260507234504 89 224 1.0 3.0 0.00 0.00 0.00 14 1021.1
20260507234004 88 270 2.0 9.0 0.00 0.00 0.00 14 1021.1
20260507233004 89 327 6.0 12.0 0.00 0.00 0.00 14 1021.2
20260507232004 89 323 5.0 10.0 0.00 0.00 0.00 14 1021.2
20260507231004 88 324 6.0 18.0 0.00 0.00 0.00 14 1021.2
20260507230504 88 127 4.0 12.0 0.00 0.00 0.00 14 1021.4
20260507230004 88 339 9.0 12.0 0.00 0.00 0.00 14 1021.4
20260507225503 88 318 1.0 10.0 0.00 0.00 0.00 14 1021.4
20260507225003 88 294 8.0 13.0 0.00 0.00 0.00 14 1021.4
20260507224503 89 1 7.0 13.0 0.00 0.00 0.00 14 1021.5
20260507223503 88 318 5.0 12.0 0.00 0.00 0.00 14 1021.5
20260507223003 89 331 5.0 13.0 0.00 0.00 0.00 14 1021.7
20260507222503 89 61 3.0 7.0 0.00 0.00 0.00 14 1021.7
20260507222003 88 88 2.0 8.0 0.00 0.00 0.00 15 1021.7
20260507221503 88 17 5.0 12.0 0.00 0.00 0.00 14 1021.9
20260507221003 88 343 7.0 12.0 0.00 0.00 0.00 14 1022.0
20260507220503 88 18 6.0 10.0 0.00 0.00 0.00 14 1022.1
20260507220002 87 322 7.0 12.0 0.00 0.00 0.00 14 1022.1
20260507215502 88 342 9.0 13.0 0.00 0.00 0.00 13 1022.3
20260507215002 88 269 1.0 5.0 0.00 0.00 0.00 14 1022.3
20260507214502 87 84 0.0 3.0 0.00 0.00 0.00 14 1022.3
20260507214004 87 53 1.0 6.0 0.00 0.00 0.00 13 1022.7
20260507213503 87 27 6.0 12.0 0.00 0.00 0.00 13 1022.7
20260507212502 88 33 8.0 15.0 0.00 0.00 0.00 13 1022.6
20260507211503 88 74 2.0 8.0 0.00 0.00 0.00 13 1022.7
20260507210503 87 61 1.0 8.0 0.00 0.00 0.00 14 1023.0
20260507210003 87 335 4.0 9.0 0.00 0.00 0.00 13 1023.0
20260507205503 87 81 3.0 6.0 0.00 0.00 0.00 13 1023.0
20260507205003 87 89 4.0 13.0 0.00 0.00 0.00 13 1023.1
20260507204503 87 35 5.0 12.0 0.00 0.00 0.00 13 1023.1
20260507203503 86 339 5.0 10.0 0.00 0.00 0.00 13 1023.2
20260507203003 87 20 7.0 13.0 0.00 0.00 0.00 13 1023.2
20260507202503 87 22 6.0 13.0 0.00 0.00 0.00 13 1023.3
20260507202002 86 96 3.0 6.0 0.00 0.00 0.00 14 1023.4
20260507201003 86 316 3.0 10.0 0.00 0.00 0.00 14 1023.6
20260507200502 85 347 6.0 12.0 0.00 0.00 0.00 14 1023.7
20260507200003 86 41 5.0 12.0 0.00 0.00 0.00 15 1023.7
20260507195503 87 30 6.0 12.0 0.00 0.00 0.00 14 1023.8
20260507195003 86 80 5.0 9.0 0.00 0.00 0.00 14 1024.0
20260507194503 86 72 3.0 9.0 0.00 0.00 0.00 14 1024.0
20260507193503 86 97 3.0 9.0 0.00 0.00 0.00 15 1024.0
20260507193003 85 14 2.0 8.0 0.00 0.00 0.00 15 1024.1
20260507191003 84 44 3.0 10.0 0.00 0.00 0.00 15 1024.2
20260507190503 85 333 3.0 8.0 0.00 0.00 0.00 15 1024.4
20260507190004 84 75 2.0 9.0 0.00 0.00 0.00 15 1024.5
20260507185502 84 24 4.0 9.0 0.00 0.00 0.00 16 1024.5
20260507185003 83 34 2.0 8.0 0.00 0.00 0.00 17 1024.5
20260507184502 83 286 5.0 10.0 0.00 0.00 0.00 16 1024.5
20260507184002 84 344 4.0 10.0 0.00 0.00 0.00 17 1024.5
20260507183502 84 275 2.0 8.0 0.00 0.00 0.00 17 1024.5
20260507182503 83 14 6.0 12.0 0.00 0.00 0.00 17 1024.6
20260507182003 83 5 8.0 12.0 0.00 0.00 0.00 17 1024.6
20260507181503 83 52 3.0 8.0 0.00 0.00 0.00 18 1024.6
20260507181003 83 355 3.0 10.0 0.00 0.00 0.00 18 1024.6
20260507180503 83 31 5.0 12.0 0.00 0.00 0.00 18 1024.7
20260507180003 83 26 3.0 9.0 0.00 0.00 0.00 18 1024.6
20260507175503 82 51 4.0 14.0 0.00 0.00 0.00 18 1024.7
20260507175003 83 29 4.0 12.0 0.00 0.00 0.00 18 1024.8
20260507174503 83 16 7.0 12.0 0.00 0.00 0.00 18 1024.7
20260507174003 82 7 6.0 12.0 0.00 0.00 0.00 18 1024.9
20260507173503 82 45 6.0 12.0 0.00 0.00 0.00 19 1025.0
20260507173002 82 22 9.0 12.0 0.00 0.00 0.00 19 1025.0
20260507172503 82 40 2.0 10.0 0.00 0.00 0.00 19 1024.9
20260507172003 82 43 4.0 12.0 0.00 0.00 0.00 19 1024.7
20260507171504 81 323 4.0 12.0 0.00 0.00 0.00 18 1024.8
20260507171003 81 338 6.0 9.0 0.00 0.00 0.00 19 1024.8
20260507170502 81 336 4.0 12.0 0.00 0.00 0.00 19 1024.7
20260507164503 81 335 6.0 9.0 0.00 0.00 0.00 19 1024.8
20260507164003 81 5 5.0 10.0 0.00 0.00 0.00 19 1024.9
20260507163504 81 18 3.0 12.0 0.00 0.00 0.00 19 1024.9
20260507163003 80 331 6.0 12.0 0.00 0.00 0.00 19 1024.9
20260507162503 81 343 3.0 10.0 0.00 0.00 0.00 19 1024.8
20260507162003 81 342 5.0 15.0 0.00 0.00 0.00 19 1024.7
20260507161503 80 344 7.0 12.0 0.00 0.00 0.00 19 1024.8
20260507161003 80 19 9.0 12.0 0.00 0.00 0.00 19 1024.8
20260507160503 80 9 6.0 12.0 0.00 0.00 0.00 20 1024.8
20260507160003 80 9 9.0 13.0 0.00 0.00 0.00 20 1024.8
20260507155503 80 320 6.0 10.0 0.00 0.00 0.00 20 1024.8
20260507155003 79 349 6.0 12.0 0.00 0.00 0.00 20 1024.7
20260507154004 77 24 3.0 9.0 0.00 0.00 0.00 23 1024.6
20260507153504 76 25 3.0 6.0 0.00 0.00 0.00 25 1024.7
20260507153003 75 10 3.0 5.0 0.00 0.00 0.00 26 1024.8
20260507152503 74 16 2.0 5.0 0.00 0.00 0.00 26 1024.9
20260507152003 74 38 2.0 5.0 0.00 0.00 0.00 27 1024.9
20260507151503 73 20 2.0 6.0 0.00 0.00 0.00 27 1024.8
20260507151003 73 22 2.0 3.0 0.00 0.00 0.00 27 1024.9
20260507150503 72 19 1.0 3.0 0.00 0.00 0.00 28 1024.9
20260507150003 71 38 1.0 3.0 0.00 0.00 0.00 28 1024.9
20260507145504 71 30 1.0 3.0 0.00 0.00 0.00 28 1024.9
20260507145003 71 17 1.0 3.0 0.00 0.00 0.00 28 1025.0
20260507144503 71 28 0.0 2.0 0.00 0.00 0.00 27 1025.0
20260507144003 72 36 1.0 3.0 0.00 0.00 0.00 27 1025.0
20260507143503 72 42 2.0 3.0 0.00 0.00 0.00 26 1025.0
20260507143003 73 3 1.0 3.0 0.00 0.00 0.00 26 1025.0
20260507142504 72 249 0.0 0.0 0.00 0.00 0.00 26 1024.6
20260507142003 72 248 0.0 1.0 0.00 0.00 0.00 26 1024.6
20260507141502 71 248 0.0 0.0 0.00 0.00 0.00 27 1024.6
20260507140502 69 248 1.0 2.0 0.00 0.00 0.00 29 1024.5
20260507140004 67 243 0.0 1.0 0.00 0.00 0.00 29 1024.5
20260507135503 66 242 0.0 2.0 0.00 0.00 0.00 30 1024.5
20260507135003 65 243 1.0 2.0 0.00 0.00 0.00 31 1024.5
20260507134504 64 242 0.0 0.0 0.00 0.00 0.00 32 1024.5
20260507134002 63 244 0.0 0.0 0.00 0.00 0.00 33 1024.5
20260507133503 61 252 0.0 0.0 0.00 0.00 0.00 36 1024.5
20260507133004 59 251 0.0 0.0 0.00 0.00 0.00 36 1024.4
20260507132503 59 251 0.0 0.0 0.00 0.00 0.00 36 1024.2
20260507131002 59 251 0.0 0.0 0.00 0.00 0.00 35 1024.2
20260507130503 59 251 0.0 0.0 0.00 0.00 0.00 35 1024.0
20260507130004 59 251 0.0 0.0 0.00 0.00 0.00 35 1023.9
20260507125503 60 251 0.0 0.0 0.00 0.00 0.00 34 1024.0
20260507125004 60 251 0.0 0.0 0.00 0.00 0.00 34 1024.0
20260507124503 61 251 0.0 0.0 0.00 0.00 0.00 34 1024.0
20260507124003 61 250 0.0 0.0 0.00 0.00 0.00 35 1024.0
20260507123503 60 250 0.0 0.0 0.00 0.00 0.00 35 1024.0
20260507123004 60 250 0.0 0.0 0.00 0.00 0.00 35 1023.9
20260507122503 60 252 0.0 0.0 0.00 0.00 0.00 35 1023.9
20260507122003 61 253 0.0 0.0 0.00 0.00 0.00 34 1024.0
20260507121503 61 257 0.0 0.0 0.00 0.00 0.00 35 1024.0
20260507121003 61 257 0.0 0.0 0.00 0.00 0.00 34 1024.0
20260507120503 61 257 0.0 0.0 0.00 0.00 0.00 34 1024.1
20260507120002 61 257 0.0 0.0 0.00 0.00 0.00 34 1024.1
20260507115503 61 257 0.0 0.0 0.00 0.00 0.00 36 1024.1
20260507115004 60 225 0.0 0.0 0.00 0.00 0.00 35 1024.1
20260507114003 60 224 0.0 0.0 0.00 0.00 0.00 35 1024.1
20260507113004 61 224 0.0 0.0 0.00 0.00 0.00 34 1024.3
20260507112503 61 224 0.0 0.0 0.00 0.00 0.00 34 1024.0
20260507112003 62 224 0.0 0.0 0.00 0.00 0.00 34 1024.0
20260507111503 61 224 0.0 0.0 0.00 0.00 0.00 35 1024.0
20260507110503 60 224 0.0 0.0 0.00 0.00 0.00 34 1024.0
20260507110003 60 224 0.0 0.0 0.00 0.00 0.00 35 1023.9
20260507105502 60 224 0.0 0.0 0.00 0.00 0.00 35 1023.9
20260507105003 60 224 0.0 0.0 0.00 0.00 0.00 35 1024.0
20260507104003 60 246 0.0 0.0 0.00 0.00 0.00 35 1024.0
20260507103503 59 246 0.0 0.0 0.00 0.00 0.00 35 1024.1
20260507103003 60 267 0.0 0.0 0.00 0.00 0.00 34 1024.0
20260507102503 60 268 0.0 0.0 0.00 0.00 0.00 34 1024.0
20260507102003 60 278 0.0 0.0 0.00 0.00 0.00 34 1023.9
20260507101503 60 281 0.0 0.0 0.00 0.00 0.00 34 1024.0
20260507101003 59 284 0.0 0.0 0.00 0.00 0.00 35 1024.0
20260507100503 59 288 0.0 0.0 0.00 0.00 0.00 36 1024.0
20260507100005 58 290 0.0 0.0 0.00 0.00 0.00 36 1024.1
20260507095503 58 240 0.0 0.0 0.00 0.00 0.00 36 1024.1
20260507095004 58 240 0.0 0.0 0.00 0.00 0.00 35 1024.1
20260507094503 58 240 0.0 0.0 0.00 0.00 0.00 35 1024.3
20260507093503 59 240 0.0 0.0 0.00 0.00 0.00 35 1024.2
20260507093003 59 242 0.0 0.0 0.00 0.00 0.00 34 1024.3
20260507092003 61 245 0.0 0.0 0.00 0.00 0.00 33 1024.1
20260507091503 61 246 0.0 0.0 0.00 0.00 0.00 33 1024.2
20260507091003 62 246 0.0 0.0 0.00 0.00 0.00 33 1024.3
20260507090503 62 246 0.0 0.0 0.00 0.00 0.00 33 1024.2
20260507090005 62 246 0.0 0.0 0.00 0.00 0.00 33 1024.3
20260507085503 61 246 0.0 0.0 0.00 0.00 0.00 34 1024.3
20260507085003 61 246 0.0 0.0 0.00 0.00 0.00 33 1024.3
20260507084503 61 242 0.0 0.0 0.00 0.00 0.00 34 1024.3
20260507084004 61 238 0.0 0.0 0.00 0.00 0.00 34 1024.3
20260507083503 61 215 0.0 0.0 0.00 0.00 0.00 34 1024.3
20260507083004 61 232 0.0 0.0 0.00 0.00 0.00 34 1024.3
20260507082003 60 247 0.0 0.0 0.00 0.00 0.00 34 1024.4
20260507081503 61 248 0.0 0.0 0.00 0.00 0.00 34 1024.4
20260507081003 61 239 0.0 0.0 0.00 0.00 0.00 34 1024.4
20260507080502 61 245 0.0 0.0 0.00 0.00 0.00 34 1024.5
20260507080004 61 232 0.0 0.0 0.00 0.00 0.00 34 1024.5
20260507075503 61 239 0.0 0.0 0.00 0.00 0.00 34 1024.4
20260507075003 61 239 0.0 0.0 0.00 0.00 0.00 33 1024.5
20260507074003 61 247 0.0 0.0 0.00 0.00 0.00 33 1024.4
20260507073503 61 239 0.0 0.0 0.00 0.00 0.00 34 1024.6
20260507073003 61 233 0.0 0.0 0.00 0.00 0.00 33 1024.6
20260507072503 61 243 0.0 0.0 0.00 0.00 0.00 33 1024.5
20260507072003 62 240 0.0 0.0 0.00 0.00 0.00 33 1024.6
20260507071003 62 241 0.0 0.0 0.00 0.00 0.00 32 1024.6
20260507070503 63 240 0.0 0.0 0.00 0.00 0.00 32 1024.6
20260507064503 64 229 0.0 0.0 0.00 0.00 0.00 31 1024.5
20260507064003 64 232 0.0 0.0 0.00 0.00 0.00 31 1024.6
20260507063503 64 238 0.0 0.0 0.00 0.00 0.00 31 1024.6
20260507063004 64 240 0.0 0.0 0.00 0.00 0.00 31 1024.7
20260507062504 64 228 0.0 0.0 0.00 0.00 0.00 31 1024.4
20260507062003 64 231 0.0 0.0 0.00 0.00 0.00 32 1024.4
20260507061503 64 233 0.0 0.0 0.00 0.00 0.00 34 1024.4
20260507061003 64 234 0.0 0.0 0.00 0.00 0.00 33 1024.3
20260507060503 64 237 0.0 0.0 0.00 0.00 0.00 31 1024.3
20260507055503 64 231 0.0 0.0 0.00 0.00 0.00 31 1024.3
20260507055003 64 233 0.0 0.0 0.00 0.00 0.00 32 1024.3
20260507054504 64 236 0.0 0.0 0.00 0.00 0.00 32 1024.3
20260507054004 65 236 0.0 0.0 0.00 0.00 0.00 32 1024.3
20260507053503 65 237 0.0 0.0 0.00 0.00 0.00 33 1024.3
20260507052502 66 231 0.0 0.0 0.00 0.00 0.00 36 1024.3
20260507052003 66 232 0.0 0.0 0.00 0.00 0.00 37 1024.4
20260507051502 66 231 0.0 0.0 0.00 0.00 0.00 37 1024.4
20260507051002 67 228 0.0 0.0 0.00 0.00 0.00 38 1024.4
20260507050503 67 234 0.0 0.0 0.00 0.00 0.00 38 1024.3
20260507050003 67 229 0.0 0.0 0.00 0.00 0.00 38 1024.4
20260507045503 67 235 0.0 0.0 0.00 0.00 0.00 39 1024.3
20260507045004 67 236 0.0 0.0 0.00 0.00 0.00 38 1024.3
20260507044503 67 224 0.0 0.0 0.00 0.00 0.00 38 1024.4
20260507044004 67 227 0.0 0.0 0.00 0.00 0.00 38 1024.3
20260507043504 67 221 0.0 0.0 0.00 0.00 0.00 38 1024.4
20260507043004 67 227 0.0 0.0 0.00 0.00 0.00 38 1024.4
20260507042503 68 234 0.0 0.0 0.00 0.00 0.00 38 1024.1
20260507042004 68 232 0.0 0.0 0.00 0.00 0.00 38 1024.1
20260507041502 68 227 0.0 0.0 0.00 0.00 0.00 38 1024.1
20260507041003 68 233 0.0 0.0 0.00 0.00 0.00 38 1024.0